Date String (YYYY-MM-DD hh:mm:ss) UTC,Instrument flags,Ambient pressure (hPa),Sample flow (lpm),Bypass flow (lpm),Sample temperature (°C),Ambient temperature (°C),ASC tube jacket temperature (°C),LED temperature (°C),Box temperature (°C),Sample RH (%),Span deviation,Mass concentration (μg/m³),Mass concentration (μg/m³),Mass concentration (μg/m³)
DateTimeUTC,F1_M11,P_M11,Q1_M11,Q2_M11,T1_M11,T2_M11,T3_M11,T4_M11,T5_M11,U1_M11,ZSPAN_M11,X0_M11,X2_M11,X1_M11
2021-09-27 17:00:00,,0826.9,5.01,0.00,29.3,26.1,00.0,38.4,30.7,13.3,0002.0,0016.80,0006.17,0004.98
2021-09-27 17:01:00,,0826.9,5.01,0.00,29.3,26.5,00.0,38.4,30.8,12.6,0002.5,0017.53,0006.16,0004.98
2021-09-27 17:02:00,,0826.9,4.99,0.00,29.3,27.0,00.0,38.4,30.9,12.6,0002.1,0017.22,0006.21,0004.99
2021-09-27 17:03:00,,0826.9,5.02,0.00,29.3,27.4,00.0,38.4,31.0,12.7,0002.5,0016.72,0006.22,0005.00
2021-09-27 17:04:00,,0826.9,4.99,0.00,29.3,27.7,00.0,38.4,31.1,12.7,0002.3,0016.43,0006.24,0005.00
2021-09-27 17:05:00,,0826.9,5.01,0.00,29.4,28.0,00.0,38.4,31.2,12.5,0002.7,0016.83,0006.20,0004.99
2021-09-27 17:06:00,,0827.1,4.99,0.00,29.4,28.3,00.0,38.4,31.3,12.6,0002.6,0017.81,0006.18,0004.99
2021-09-27 17:07:00,,0826.8,5.01,0.00,29.5,28.5,00.0,38.4,31.4,12.5,0002.9,0017.68,0006.14,0004.97
2021-09-27 17:08:00,,0827.0,5.00,0.00,29.5,28.4,00.0,38.4,31.4,12.5,0002.6,0017.46,0006.15,0004.96
2021-09-27 17:09:00,,0827.1,4.99,0.00,29.5,26.8,00.0,38.4,30.9,12.7,0002.7,0017.53,0006.11,0004.94
2021-09-27 17:10:00,,0826.9,5.01,0.00,29.3,26.1,00.0,38.4,30.7,12.9,0002.2,0017.39,0006.07,0004.92
2021-09-27 17:11:00,,0826.8,5.00,0.00,29.3,26.5,00.0,38.4,30.8,13.0,0002.0,0017.45,0006.04,0004.90
2021-09-27 17:12:00,,0826.8,5.00,0.00,29.3,26.9,00.0,38.4,30.9,13.1,0001.3,0016.50,0006.03,0004.89
2021-09-27 17:13:00,,0826.8,4.99,0.00,29.3,27.3,00.0,38.4,31.0,13.5,0001.2,0016.57,0006.06,0004.90
2021-09-27 17:14:00,,0826.9,5.02,0.00,29.3,27.7,00.0,38.4,31.1,13.4,0000.8,0016.81,0006.10,0004.91
2021-09-27 17:15:00,,0826.8,5.00,0.00,29.4,28.1,00.0,38.4,31.2,13.4,0001.0,0016.57,0006.06,0004.91
2021-09-27 17:16:00,,0826.8,4.98,0.00,29.4,28.3,00.0,38.4,31.3,13.8,0000.9,0016.70,0006.03,0004.91
2021-09-27 17:17:00,,0826.8,5.02,0.00,29.5,27.6,00.0,38.4,31.2,13.9,0000.8,0017.90,0006.07,0004.93
2021-09-27 17:18:00,,0826.8,4.99,0.00,29.3,26.2,00.0,38.4,30.8,14.0,0001.1,0017.62,0006.10,0004.94
2021-09-27 17:19:00,,0826.7,5.01,0.00,29.3,26.2,00.0,38.4,30.8,14.3,0001.5,0017.86,0006.10,0004.94
2021-09-27 17:20:00,,0826.8,5.00,0.00,29.2,26.7,00.0,38.4,30.9,14.4,0001.5,0018.33,0006.13,0004.94
2021-09-27 17:21:00,,0826.8,5.00,0.00,29.3,27.1,00.0,38.3,31.0,14.3,0001.1,0022.44,0006.29,0004.95
2021-09-27 17:22:00,,0826.7,4.99,0.00,29.3,27.6,00.0,38.3,31.1,14.0,0000.6,0035.00,0006.61,0004.97
2021-09-27 17:23:00,,0826.8,5.00,0.00,29.3,27.9,00.0,38.3,31.2,14.2,0000.6,0034.92,0006.67,0004.98
2021-09-27 17:24:00,,0826.7,5.01,0.00,29.4,28.2,00.0,38.3,31.3,14.2,0001.1,0034.11,0006.69,0004.98
2021-09-27 17:25:00,,0826.8,5.00,0.00,29.5,28.2,00.0,38.4,31.3,14.1,0001.4,0033.89,0006.66,0004.98
2021-09-27 17:26:00,,0826.7,5.01,0.00,29.4,26.9,00.0,38.4,30.9,14.2,0001.2,0034.26,0006.69,0004.98
2021-09-27 17:27:00,,0826.7,5.00,0.00,29.3,26.1,00.0,38.3,30.7,14.2,0001.6,0035.33,0006.72,0004.98
2021-09-27 17:28:00,,0826.7,5.01,0.00,29.2,26.5,00.0,38.3,30.8,13.9,0001.9,0034.99,0006.66,0004.98
2021-09-27 17:29:00,,0826.7,4.99,0.00,29.2,26.9,00.0,38.3,30.9,13.2,0001.8,0035.60,0006.59,0004.95
2021-09-27 17:30:00,,0826.7,5.00,0.00,29.3,27.3,00.0,38.3,31.0,13.4,0001.9,0035.18,0006.52,0004.93
2021-09-27 17:31:00,,0826.7,4.99,0.00,29.3,27.7,00.0,38.3,31.1,13.7,0001.7,0035.14,0006.46,0004.91
2021-09-27 17:32:00,,0826.7,5.01,0.00,29.4,28.1,00.0,38.3,31.2,13.8,0001.8,0033.12,0006.37,0004.90
2021-09-27 17:33:00,,0826.7,5.00,0.00,29.4,27.4,00.0,38.3,31.1,13.7,0002.3,0018.41,0006.01,0004.87
2021-09-27 17:34:00,,0826.7,5.00,0.00,29.2,26.0,00.0,38.3,30.7,13.9,0002.8,0018.43,0005.96,0004.86
2021-09-27 17:35:00,,0826.7,5.01,0.00,29.2,26.1,00.0,38.3,30.6,14.1,0002.8,0018.79,0005.91,0004.85
2021-09-27 17:36:00,,0826.7,4.98,0.00,29.1,26.5,00.0,38.3,30.8,14.0,0002.2,0018.64,0005.91,0004.84
2021-09-27 17:37:00,,0826.7,5.00,0.00,29.1,27.0,00.0,38.2,30.9,13.9,0002.3,0019.01,0005.90,0004.82
2021-09-27 17:38:00,,0826.7,5.00,0.00,29.2,27.4,00.0,38.2,31.0,13.5,0002.0,0018.44,0005.85,0004.80
2021-09-27 17:39:00,,0826.7,5.01,0.00,29.3,27.8,00.0,38.2,31.1,13.5,0001.8,0016.70,0005.81,0004.77
2021-09-27 17:40:00,,0826.7,5.00,0.00,29.3,28.1,00.0,38.3,31.2,13.3,0001.7,0015.54,0005.80,0004.76
2021-09-27 17:41:00,,0826.7,5.00,0.00,29.3,27.4,00.0,38.3,31.0,12.6,0001.2,0016.10,0005.84,0004.74
2021-09-27 17:42:00,,0826.7,5.01,0.00,29.2,26.0,00.0,38.3,30.6,12.4,0001.6,0015.28,0005.79,0004.69
2021-09-27 17:43:00,,0826.7,4.99,0.00,29.1,26.1,00.0,38.2,30.6,12.6,0001.9,0014.60,0005.73,0004.66
2021-09-27 17:44:00,,0826.7,5.01,0.00,29.1,26.5,00.0,38.2,30.7,12.5,0001.6,0014.29,0005.70,0004.62
2021-09-27 17:45:00,,0826.7,5.00,0.00,29.1,27.0,00.0,38.2,30.8,12.9,0001.0,0013.99,0005.61,0004.57
2021-09-27 17:46:00,,0826.7,5.01,0.00,29.1,27.4,00.0,38.2,30.9,13.2,0001.0,0013.01,0005.52,0004.54
2021-09-27 17:47:00,,0826.7,4.99,0.00,29.2,27.8,00.0,38.2,31.0,13.5,0001.4,0012.90,0005.46,0004.50
2021-09-27 17:48:00,,0826.7,4.99,0.00,29.3,28.1,00.0,38.2,31.2,13.2,0001.6,0012.66,0005.40,0004.47
2021-09-27 17:49:00,,0826.7,5.00,0.00,29.3,28.1,00.0,38.2,31.2,13.6,0001.2,0011.74,0005.36,0004.45
2021-09-27 17:50:00,,0826.7,5.01,0.00,29.3,26.6,00.0,38.2,30.8,13.0,0000.9,0012.87,0005.38,0004.42
2021-09-27 17:51:00,,0826.7,5.00,0.00,29.1,25.8,00.0,38.2,30.5,12.8,0000.5,0013.02,0005.34,0004.39
2021-09-27 17:52:00,,0826.6,5.00,0.00,29.1,26.3,00.0,38.2,30.7,12.8,0000.0,0012.68,0005.27,0004.36
2021-09-27 17:53:00,,0826.7,4.99,0.00,29.1,26.8,00.0,38.2,30.8,13.1,0001.3,0012.81,0005.27,0004.37
2021-09-27 17:54:00,,0826.6,5.01,0.00,29.1,27.3,00.0,38.2,30.9,13.3,0000.6,0014.87,0005.36,0004.37
2021-09-27 17:55:00,,0826.6,4.99,0.00,29.2,27.7,00.0,38.2,31.0,13.3,0000.2,0015.85,0005.38,0004.37
2021-09-27 17:56:00,,0826.6,5.01,0.00,29.2,28.0,00.0,38.2,31.1,13.4,0000.7,0016.84,0005.43,0004.36
2021-09-27 17:57:00,,0826.6,5.00,0.00,29.3,28.3,00.0,38.2,31.3,13.1,0000.5,0017.41,0005.45,0004.35
2021-09-27 17:58:00,,0826.5,4.99,0.00,29.4,28.3,00.0,38.2,31.3,13.0,0001.0,0017.93,0005.51,0004.35
2021-09-27 17:59:00,,0826.5,5.01,0.00,29.3,27.0,00.0,38.2,30.9,12.6,0000.8,0018.16,0005.50,0004.31
